This is the latest recevied weather packets stored in our database for station/object N7IGG. If no packets are shown the sender has not sent any weather packets the latest 10 day(s).
| Time | Temp. | Humidity | Pressure | Rain* | Wind** | Luminosity | Snow |
|---|---|---|---|---|---|---|---|
| 1778029144 | 17.78° C | 75% | 1015.2 hPa | 0 mm | - | 234 W/m² | - |
| 1778028842 | 18.33° C | 74% | 1015.1 hPa | 0 mm | - | 284 W/m² | - |
| 1778028537 | 17.78° C | 76% | 1015.3 hPa | 0 mm | - | 287 W/m² | - |
| 1778028235 | 17.22° C | 78% | 1015.4 hPa | 0 mm | - | 283 W/m² | - |
| 1778027931 | 16.67° C | 78% | 1015.3 hPa | 0 mm | - | 297 W/m² | - |
| 1778027627 | 16.67° C | 77% | 1015.3 hPa | 0 mm | - | 341 W/m² | - |
| 1778027324 | 16.67° C | 77% | 1015.3 hPa | 0 mm | - | 331 W/m² | - |
| 1778027020 | 17.78° C | 76% | 1015.3 hPa | 0 mm | - | 314 W/m² | - |
| 1778026716 | 17.22° C | 78% | 1015.5 hPa | 0 mm | - | 329 W/m² | - |
| 1778026413 | 17.22° C | 77% | 1015.4 hPa | 0 mm | - | 323 W/m² | - |
| 1778026110 | 16.11° C | 78% | 1015.5 hPa | 0 mm | - | 354 W/m² | - |
| 1778025808 | 16.67° C | 77% | 1015.4 hPa | 0 mm | - | 340 W/m² | - |
| 1778025504 | 16.67° C | 79% | 1015.7 hPa | 0 mm | - | 412 W/m² | - |
| 1778025202 | 16.11° C | 79% | 1015.6 hPa | 0 mm | - | 401 W/m² | - |
| 1778024899 | 16.67° C | 78% | 1015.8 hPa | 0 mm | - | 446 W/m² | - |
| 1778024597 | 16.67° C | 78% | 1015.7 hPa | 0 mm | - | 433 W/m² | - |
| 1778024293 | 16.67° C | 77% | 1015.7 hPa | 0 mm | - | 454 W/m² | - |
| 1778023991 | 17.22° C | 78% | 1015.8 hPa | 0 mm | - | 484 W/m² | - |
| 1778023688 | 16.67° C | 76% | 1015.9 hPa | 0 mm | - | 390 W/m² | - |
| 1778023386 | 16.67° C | 78% | 1015.9 hPa | 0 mm | - | 531 W/m² | - |
| 1778023082 | 16.11° C | 80% | 1016 hPa | 0 mm | - | 492 W/m² | - |
| 1778022781 | 16.11° C | 79% | 1016.1 hPa | 0 mm | - | 339 W/m² | - |
| 1778022478 | 16.67° C | 79% | 1015.9 hPa | 0 mm | - | 416 W/m² | - |
| 1778022175 | 16.67° C | 80% | 1015.9 hPa | 0 mm | - | 269 W/m² | - |
| 1778021872 | 16.11° C | 80% | 1016.1 hPa | 0 mm | - | 259 W/m² | - |
* Rain latest hour (hover to see other rain measurements)
** Current wind speed in m/s (hover to see current wind gust speed)